Regional Weather Roundup
Issued by NWS

Home | Current Version | Previous Version | Text Only | Print | Product List | Glossary Off
Versions: 1 2 3 4 5 6 7 8 9 10 11 12 13 14 15 16 17 18 19 20 21 22 23 24 25 26 27 28 29 30 31 32 33 34 35 36 37 38 39 40 41 42 43 44 45 46 47 48 49 50

000
ASUS43 KDMX 071906
RWRIA

WEATHER ROUNDUP FOR IOWA
NATIONAL WEATHER SERVICE DES MOINES IA
100 PM CST WED DEC 07 2016

NOTE: "FAIR" INDICATES FEW OR NO CLOUDS BELOW 12,000 FEET WITH NO
SIGNIFICANT WEATHER AND/OR OBSTRUCTIONS TO VISIBILITY.

* - THESE STATIONS ARE NOT NWS STATIONS...THUS NOT UNDER NWS
QUALITY CONTROL.  THEY ALSO DO NOT REPORT WEATHER SUCH
AS PRECIPITATION OR FOG.

IAZ001>003-012>014-020>022-031>034-043>046-072000-
   NORTHWEST IOWA

CITY           SKY/WX    TMP DP  RH WIND       PRES   REMARKS
CARROLL *      CLOUDY    23  10  58 W24       30.22F WCI   7
CHEROKEE *     CLOUDY    21  10  61 W15G23    30.23S WCI   8
DENISON *      MOSUNNY   21   9  58 W18       30.23F WCI   6
LE MARS *      CLOUDY    21   9  58 W17G26    30.26F WCI   7
ORANGE CITY *  MOSUNNY   19  10  68 W23G30    30.21F WCI   2
SHELDON *      CLOUDY    19  10  68 W23G29    30.18S WCI   2
SIOUX CITY     PTSUNNY   22   7  52 NW22      30.28F WCI   6
SPENCER        PTSUNNY   20   9  62 W32G38    30.17F WCI   1
STORM LAKE *   FLURRIES  19   9  63 W24G31    30.19F WCI   2
$$

IAZ055>058-069>071-079>083-090>094-072000-
   SOUTHWEST IOWA

CITY           SKY/WX    TMP DP  RH WIND       PRES   REMARKS
ATLANTIC *     PTSUNNY   21  10  63 NW17G24   30.27S WCI   7
AUDUBON *      CLOUDY    21  10  63 W10G20    30.24F WCI  10
CLARINDA *     PTSUNNY   23  10  58 NW14      30.33F WCI  11
COUNCIL BLFS * PTSUNNY   21   9  58 W16G23    30.30S WCI   7
CRESTON *      PTSUNNY   23  10  58 W14G22    30.26F WCI  11
HARLAN  *      MOSUNNY   21  10  63 W16G24    30.31R WCI   7
LAMONI         CLOUDY    24  12  60 W18       30.25F WCI  10
RED OAK *      CLOUDY    21  10  63 W15       30.31S WCI   8
SHENANDOAH *   CLOUDY    23  10  58 NW13G20   30.33F WCI  11
$$

IAZ047>049-059>061-072>074-084-072000-
   CENTRAL IOWA

CITY           SKY/WX    TMP DP  RH WIND       PRES   REMARKS
AMES           MOSUNNY   23  13  65 W14G25    30.20F WCI  11
ANKENY *       MOSUNNY   23  12  63 W15G21    30.23S WCI  10
BOONE *        MOSUNNY   21  10  63 W17       30.18F WCI   7
CHARITON *     CLOUDY    25  12  58 W17       30.23F WCI  11
DES MOINES     CLOUDY    25  10  53 NW15      30.23S WCI  13
GRINNELL*      PTSUNNY   23  14  70 W16       30.19S WCI   9
KNOXVILLE *    CLOUDY    25  10  54 W17G24    30.22R WCI  11
MARSHALLTOWN   PTSUNNY   22  13  68 W17       30.16F WCI   8
NEWTON *       MOSUNNY   23  14  68 NW17      30.19F WCI   9
PELLA *        CLOUDY    25  13  60 W15       30.23S WCI  12
PERRY *          N/A     23  14  70 W21G28    30.22F WCI   8
$$

IAZ004>006-015-016-023>025-035-036-072000-
   NORTH CENTRAL IOWA

CITY           SKY/WX    TMP DP  RH WIND       PRES   REMARKS
ALGONA *       CLOUDY    23  12  63 W20G30    30.15S WCI   8
CLARION *      SUNNY     23  12  63 W24G30    30.15S WCI   7
ESTHERVILLE    CLOUDY    21  11  65 W24G33    30.14S WCI   4
FORT DODGE *   SUNNY     23  12  63 W17G23    30.19S WCI   9
MASON CITY     MOSUNNY   21  11  65 W24G31    30.12F WCI   4
FOREST CITY *    N/A     23  12  63 W23G29    30.11F WCI   7
WEBSTER CITY * SUNNY     23  12  63 W23       30.16S WCI   7
IOWA FALLS *     N/A     24  15  70 W18G24    30.16F WCI  10
$$

IAZ007>011-017>019-026>030-037>042-050>054-066-072000-
   NORTHEAST IOWA

CITY           SKY/WX    TMP DP  RH WIND       PRES   REMARKS
CEDAR RAPIDS   MOSUNNY   21  16  81 W20       30.15S WCI   6
CHARLES CITY * FLURRIES  19  12  73 W14G24    30.11F WCI   6
CLINTON *      PTSUNNY   24  18  77 W18G26    30.13F WCI  10
DECORAH *      FLURRIES  18  12  79 W10G17    30.07F WCI   6
DUBUQUE        CLOUDY    19  12  74 W15G25    30.09F WCI   5
MONTICELLO *   MOSUNNY   21  14  73 W16G22    30.13S WCI   7
OELWEIN *      FLURRIES  19  12  73 W18       30.12S WCI   4
WATERLOO       MOSUNNY   21  12  68 W18G25    30.14S WCI   6
$$

IAZ064-065-067-068-078-072000-
   EAST CENTRAL IOWA

CITY           SKY/WX    TMP DP  RH WIND       PRES   REMARKS
DAVENPORT      MOSUNNY   26  19  74 W15       30.15S WCI  14
IOWA CITY      SUNNY     26  15  63 W18       30.19S WCI  13
MUSCATINE *    CLOUDY    28  16  59 W16       30.20R WCI  17
QUAD CITIES    PTSUNNY   28  17  63 W12       30.16R WCI  18
$$

IAZ062-063-075>077-085>089-095>099-072000-
   SOUTHEAST IOWA

CITY           SKY/WX    TMP DP  RH WIND       PRES   REMARKS
BURLINGTON     PTSUNNY   29  17  61 W8        30.19F WCI  21
FAIRFIELD *    MOSUNNY   27  14  59 W14       30.21S WCI  15
FORT MADISON * MOSUNNY   30  18  59 W14       30.21S WCI  20
KEOKUK *       MOSUNNY   32  16  51 W10       30.21S WCI  24
OSKALOOSA *      N/A     26  15  63 W17       30.22S WCI  13
CENTERVILLE *    N/A     27  14  59 W13       30.24F WCI  16
OTTUMWA        MOSUNNY   26  11  52 W14       30.22R WCI  14
WASHINGTON *   MOSUNNY   27  16  63 W13G24    30.21R WCI  16
$$

ABBREVIATIONS USED IN REMARKS
   TC - TEMPERATURES IN CELSIUS
  WCI - WIND CHILL INDEX
   HX - HEAT INDEX
  VSB - VISIBILITY
$$





USA.gov is the U.S. government's official web portal to all federal, state and local government web resources and services.